Wind_Speed
27 28 30 30 30 30 29 26 25 24 23 20 20 19 18 19 21 21 21 22 22 18 14 15 15 13 12 11 12 11 12 12 13 12 10 9 7 6 7 9 12 12 11
26 28 31 31 31 31 31 32 27 25 23 24 24 23 21 18 20 20 21 22 22 21 18 17 17 16 16 16 17 15 14 10 12 15 17 15 14 12 11 9 10 12 11
25 24 29 30 29 30 29 29 29 29 29 29 26 24 24 24 19 20 20 18 19 19 20 20 18 16 17 17 16 12 10 11 9 14 18 20 21 20 19 19 17 15 10
23 23 27 28 29 28 29 28 28 30 30 30 30 29 28 29 30 29 27 25 23 23 22 25 21 23 24 17 15 16 19 17 14 11 15 20 23 23 22 20 20 17 14
21 24 25 26 27 27 28 30 29 28 28 27 27 27 29 30 31 33 34 33 32 31 30 27 26 24 22 19 19 21 18 20 24 19 11 13 19 23 25 23 20 19 16
18 22 21 23 23 25 26 27 27 27 29 27 25 23 24 25 29 32 33 34 35 36 38 33 35 28 23 23 22 23 22 19 20 24 26 23 19 17 22 23 24 21 19
15 17 18 18 19 20 18 19 23 26 28 28 29 28 22 20 23 27 30 34 35 36 41 46 44 38 32 29 29 26 25 22 21 21 25 27 29 25 21 25 25 22 21
10 13 13 13 14 15 17 17 17 20 23 24 29 32 27 26 17 20 21 26 27 31 36 45 45 50 47 39 33 32 31 31 23 22 21 23 29 30 26 23 26 27 27
8 9 8 9 10 12 13 13 14 16 18 22 25 29 31 30 20 20 18 20 20 30 37 38 41 44 53 55 62 59 35 32 33 26 22 19 22 29 29 28 27 31 34
7 5 4 5 7 10 11 13 14 17 19 21 21 24 27 31 31 20 19 20 22 36 41 34 35 43 49 57 65 69 71 41 32 30 24 23 22 23 32 33 32 31 32
5 4 4 5 7 9 10 13 15 17 19 19 22 24 27 30 32 30 26 25 29 34 38 44 38 39 43 46 59 68 68 59 43 33 31 28 27 25 24 32 37 34 37
2 3 5 6 7 9 12 14 16 18 20 22 24 25 27 29 32 34 34 29 30 32 35 46 37 37 39 45 52 68 67 65 53 49 37 32 32 31 30 29 30 42 41
6 5 6 8 12 14 15 17 18 20 21 24 27 28 30 32 32 33 37 38 41 32 34 47 39 37 40 42 48 67 69 65 55 40 29 27 30 30 33 36 37 36 43
10 9 8 10 11 12 14 17 20 21 22 25 28 30 32 35 35 37 38 43 40 34 37 43 37 38 39 45 50 66 72 69 53 46 35 36 29 27 31 35 40 41 44
17 15 14 14 14 16 16 19 23 25 26 27 31 35 35 37 38 39 41 43 45 45 39 44 38 37 40 46 52 67 69 65 53 50 42 42 48 47 38 34 37 40 42
20 22 22 20 20 19 20 22 26 27 30 31 34 37 40 40 40 42 45 46 46 47 44 46 35 41 43 52 55 67 67 61 52 45 44 48 43 48 49 48 44 39 44
23 25 25 25 27 27 25 26 29 30 32 34 36 39 43 44 44 47 48 51 49 50 48 42 34 41 51 54 62 70 64 58 58 50 49 51 57 61 61 52 44 43 45
30 28 27 26 29 30 30 31 33 34 35 38 40 42 44 46 47 51 52 52 52 51 42 34 39 42 49 57 66 69 62 63 58 57 65 60 67 71 74 66 54 44 42
35 33 31 30 30 33 35 35 36 37 40 42 44 48 49 50 50 55 54 53 51 45 38 33 48 47 51 57 69 72 69 70 69 66 67 70 80 85 83 79 63 45 41
38 37 35 35 35 36 39 40 40 44 45 48 49 51 53 53 53 57 57 55 48 37 31 39 47 56 59 59 72 72 74 73 70 69 75 82 88 88 91 81 69 52 37
40 41 42 41 41 42 44 45 45 48 51 54 54 55 56 57 57 59 61 49 41 33 32 39 47 50 61 69 76 73 72 77 78 78 84 90 86 93 97 90 76 53 41
44 44 45 46 47 49 50 51 51 53 55 56 57 57 59 59 62 62 55 37 33 34 34 40 44 50 59 65 73 77 75 77 81 86 94 98 92 98 102 98 87 67 48
50 52 52 53 54 55 55 56 55 56 58 60 62 60 62 64 60 59 40 37 35 39 40 44 49 54 60 65 76 78 80 79 84 90 94 96 103 106 101 99 93 76 58
57 58 59 60 60 62 62 65 65 62 64 63 62 63 64 61 56 42 33 40 42 44 42 41 54 55 58 67 73 78 81 82 87 91 99 94 103 107 110 104 94 85 66
62 64 64 65 63 61 62 57 58 59 63 64 63 62 55 44 35 31 39 44 48 44 41 40 57 59 61 67 76 79 88 87 91 94 96 99 110 114 113 113 103 89 71
46 47 44 43 43 42 47 57 53 48 50 54 53 43 26 23 31 35 40 46 44 44 41 47 60 60 62 68 76 81 90 97 94 92 96 100 108 114 121 121 114 99 76
Wind_Direction
66 63 62 60 61 58 59 56 52 51 52 46 45 37 35 29 33 37 46 44 39 36 26 18 19 26 19 7 352 333 296 284 264 257 261 250 247 255 265 273 274 266 276
66 65 62 59 57 61 58 54 54 53 52 51 50 51 48 44 39 40 39 39 36 37 36 24 13 5 356 348 354 8 9 314 279 267 255 256 253 253 252 262 271 267 270
65 66 61 62 60 57 56 59 58 55 54 51 47 46 43 42 39 36 40 39 34 33 32 27 26 20 5 354 351 345 338 349 322 282 269 260 258 263 263 266 268 275 259
68 66 59 58 60 61 57 53 53 54 52 52 52 49 44 46 47 46 45 44 40 36 33 29 22 20 18 11 353 331 322 321 311 301 277 269 261 260 262 262 268 274 263
71 63 60 58 56 59 57 52 52 52 51 48 46 47 49 47 47 50 51 51 46 40 35 35 27 22 17 13 9 355 326 305 307 301 291 272 266 260 256 257 259 259 266
72 66 62 57 55 54 49 43 46 47 50 47 43 40 43 47 48 52 51 48 46 44 42 38 32 26 16 6 356 348 344 326 302 292 291 286 277 270 255 256 256 255 252
69 66 62 57 52 53 47 44 46 45 42 37 33 33 34 33 44 47 50 46 46 44 39 35 34 29 20 13 3 352 345 331 320 309 286 281 280 278 269 251 249 247 244
78 74 62 57 51 51 47 38 34 35 36 29 28 30 25 21 26 21 26 26 34 29 24 24 26 29 27 19 3 357 346 336 321 308 302 287 275 275 269 257 247 244 240
88 79 64 57 49 48 43 32 26 25 26 21 21 28 22 23 13 22 14 12 15 9 16 19 22 24 31 30 24 21 359 341 329 316 298 296 274 261 264 259 248 243 240
87 74 60 38 31 32 29 18 13 7 11 15 18 18 17 23 27 14 2 357 355 357 358 359 3 9 18 20 21 17 14 3 341 326 306 293 279 269 253 256 259 248 243
81 58 31 6 8 3 9 2 356 358 1 2 5 6 10 17 22 20 0 343 342 345 354 357 346 351 359 1 7 10 15 19 14 351 322 304 295 279 269 255 243 247 246
338 345 342 341 341 347 350 346 347 349 353 358 1 359 2 6 7 11 14 4 356 356 353 356 347 338 344 354 354 8 13 17 22 18 1 322 305 296 282 267 259 246 239
273 292 307 319 328 335 341 340 344 342 346 349 353 353 354 1 0 2 3 2 2 352 346 351 350 343 335 338 348 4 11 10 10 12 8 345 326 313 299 292 276 266 247
270 277 290 305 320 327 337 336 335 337 341 343 343 345 348 352 352 357 360 359 355 349 346 344 348 344 344 339 343 355 4 6 3 8 6 2 356 330 310 293 283 274 267
283 284 284 295 307 316 323 326 330 333 334 335 336 338 342 345 347 348 350 350 348 346 340 341 346 338 347 356 355 2 3 1 358 0 359 354 346 337 334 316 296 284 269
290 294 294 292 298 306 313 321 325 330 329 330 331 331 335 339 341 342 343 345 343 340 340 345 343 354 353 355 357 2 4 1 354 355 351 344 343 341 330 316 302 285 270
283 287 291 292 294 304 307 315 319 322 322 323 324 326 329 333 337 337 340 339 337 336 339 343 345 350 355 355 356 1 0 355 354 350 343 338 340 338 336 330 308 288 271
285 288 287 286 288 296 301 309 313 315 316 317 318 321 325 329 334 334 335 334 332 338 345 346 344 347 348 353 357 356 356 358 355 348 343 340 335 341 340 334 320 296 274
286 286 281 284 289 294 301 304 307 309 310 312 315 318 321 326 329 329 329 329 330 333 339 351 358 353 350 351 356 356 354 354 353 347 344 341 339 341 339 335 328 310 277
279 283 283 286 290 293 297 300 303 304 305 308 312 315 318 321 323 325 325 326 325 329 342 350 356 358 353 344 354 357 357 356 352 348 346 344 341 343 342 338 334 326 299
278 279 283 286 289 290 293 297 301 301 305 307 311 311 314 317 320 321 324 323 323 333 344 343 347 353 356 348 351 351 355 355 353 348 350 349 344 344 347 344 342 334 315
277 280 283 287 289 291 293 296 298 299 301 302 304 307 310 314 316 320 320 317 315 321 321 338 343 357 357 350 348 349 352 352 350 351 353 350 345 346 349 349 347 341 328
279 280 284 286 288 290 291 291 292 293 294 296 300 305 307 308 312 315 310 310 309 307 314 326 342 352 353 349 348 350 351 352 351 351 352 349 347 348 349 349 349 344 334
280 282 283 284 285 285 285 286 289 291 291 294 298 302 304 309 312 307 303 307 303 307 304 330 340 347 348 346 347 348 348 351 351 351 349 347 349 346 348 348 350 345 337
278 278 279 279 279 281 284 287 291 291 291 294 299 302 304 304 308 306 312 311 310 305 304 330 342 339 343 341 342 342 343 346 348 350 350 349 350 349 348 352 348 345 340
281 285 285 284 283 289 286 292 295 291 294 290 292 299 292 307 310 306 310 313 307 306 309 329 333 334 328 332 334 339 341 339 343 348 347 349 350 351 351 352 348 344 342
Height
10978 10975 10973 10970 10969 10966 10964 10962 10962 10960 10959 10958 10955 10953 10952 10950 10947 10945 10944 10942 10940 10938 10937 10935 10933 10931 10930 10929 10927 10924 10922 10923 10923 10923 10924 10923 10923 10922 10922 10922 10923 10923 10922
10981 10978 10975 10973 10972 10970 10968 10967 10965 10964 10962 10960 10958 10957 10955 10954 10952 10949 10947 10944 10942 10940 10938 10936 10933 10931 10930 10928 10926 10923 10921 10920 10920 10920 10921 10922 10921 10921 10920 10920 10920 10919 10919
10984 10983 10979 10978 10977 10974 10974 10972 10971 10969 10966 10962 10961 10959 10957 10957 10954 10952 10950 10947 10945 10942 10940 10937 10935 10932 10930 10927 10925 10924 10922 10920 10918 10918 10918 10918 10918 10917 10917 10917 10917 10916 10916
10987 10985 10984 10982 10981 10980 10978 10976 10974 10971 10969 10968 10965 10963 10962 10960 10957 10955 10952 10949 10947 10944 10942 10940 10936 10934 10931 10929 10927 10924 10922 10920 10918 10916 10914 10914 10913 10913 10913 10913 10914 10914 10914
10989 10989 10987 10985 10985 10984 10983 10980 10978 10975 10974 10972 10970 10968 10966 10963 10960 10958 10955 10953 10950 10948 10945 10943 10939 10936 10933 10930 10927 10925 10921 10918 10915 10914 10913 10909 10908 10909 10909 10910 10910 10911 10911
10992 10992 10991 10990 10988 10988 10987 10985 10983 10981 10978 10976 10974 10972 10969 10966 10964 10962 10959 10957 10954 10952 10950 10946 10942 10938 10934 10930 10926 10923 10918 10915 10912 10910 10908 10906 10904 10904 10905 10905 10906 10907 10908
10994 10993 10993 10993 10992 10990 10990 10990 10988 10984 10981 10980 10977 10974 10971 10969 10967 10964 10961 10958 10956 10953 10950 10946 10943 10939 10935 10930 10924 10919 10914 10910 10906 10904 10902 10900 10899 10898 10899 10898 10900 10901 10901
10995 10995 10995 10994 10994 10992 10993 10991 10990 10987 10984 10982 10980 10976 10973 10970 10968 10965 10962 10959 10956 10953 10949 10945 10941 10937 10931 10928 10923 10917 10911 10905 10900 10896 10894 10893 10892 10891 10893 10892 10893 10894 10894
10996 10996 10997 10996 10996 10994 10993 10992 10991 10989 10987 10984 10981 10978 10974 10971 10968 10966 10963 10960 10957 10953 10949 10946 10943 10938 10931 10927 10922 10916 10908 10901 10894 10890 10886 10884 10883 10883 10884 10886 10886 10886 10887
10996 10997 10997 10998 10997 10995 10994 10993 10992 10990 10988 10986 10983 10980 10977 10974 10970 10967 10964 10961 10956 10952 10949 10944 10940 10937 10931 10926 10920 10913 10904 10894 10888 10883 10881 10877 10875 10874 10874 10876 10877 10878 10879
10995 10996 10997 10997 10995 10994 10994 10993 10992 10990 10988 10986 10983 10979 10976 10972 10969 10966 10962 10959 10955 10951 10947 10942 10938 10934 10928 10923 10918 10911 10902 10891 10885 10879 10875 10872 10869 10866 10864 10864 10866 10868 10869
10995 10995 10995 10994 10994 10993 10992 10991 10990 10988 10986 10983 10981 10977 10974 10971 10968 10964 10961 10958 10954 10949 10944 10939 10934 10929 10925 10921 10915 10907 10897 10888 10883 10875 10869 10864 10862 10859 10855 10853 10852 10855 10857
10993 10993 10993 10993 10992 10992 10991 10989 10988 10986 10984 10980 10977 10974 10971 10968 10965 10963 10960 10956 10952 10947 10941 10936 10930 10925 10920 10913 10908 10899 10888 10882 10876 10870 10864 10859 10855 10851 10849 10848 10846 10843 10842
10992 10991 10990 10990 10989 10988 10988 10987 10985 10983 10981 10977 10973 10970 10969 10965 10962 10959 10956 10953 10949 10943 10939 10932 10924 10919 10912 10907 10901 10891 10880 10874 10866 10861 10856 10854 10852 10847 10842 10837 10832 10829 10828
10987 10988 10987 10986 10986 10984 10983 10982 10980 10979 10976 10973 10969 10965 10964 10962 10959 10956 10952 10948 10943 10937 10932 10925 10920 10912 10907 10901 10892 10881 10874 10866 10858 10851 10846 10844 10840 10834 10831 10827 10821 10816 10813
10982 10982 10983 10983 10981 10980 10979 10977 10975 10974 10971 10968 10965 10961 10957 10955 10952 10950 10947 10942 10935 10929 10923 10917 10912 10908 10900 10891 10881 10873 10864 10857 10851 10845 10841 10837 10831 10825 10819 10811 10805 10799 10794
10977 10977 10977 10978 10977 10976 10975 10973 10971 10968 10965 10962 10959 10956 10951 10948 10945 10941 10938 10932 10925 10918 10913 10907 10904 10898 10889 10881 10874 10868 10858 10849 10843 10838 10833 10826 10818 10810 10800 10790 10783 10776 10773
10971 10972 10972 10972 10971 10971 10970 10968 10966 10964 10959 10956 10952 10949 10945 10940 10937 10932 10927 10922 10914 10909 10906 10900 10896 10887 10878 10873 10866 10857 10848 10840 10835 10827 10819 10814 10806 10794 10784 10772 10759 10750 10746
10965 10965 10965 10965 10965 10964 10963 10962 10960 10956 10951 10947 10944 10940 10937 10933 10929 10923 10918 10912 10906 10902 10898 10896 10888 10879 10871 10867 10857 10847 10838 10831 10823 10815 10808 10800 10788 10778 10766 10751 10737 10725 10719
10957 10957 10957 10957 10957 10957 10955 10953 10952 10948 10944 10938 10935 10932 10929 10926 10920 10913 10908 10902 10896 10892 10889 10886 10879 10873 10865 10858 10851 10840 10829 10823 10815 10805 10799 10789 10777 10764 10754 10737 10716 10699 10695
10952 10950 10949 10949 10949 10948 10945 10943 10941 10938 10934 10930 10927 10923 10920 10917 10913 10905 10899 10894 10889 10885 10881 10877 10873 10866 10858 10850 10841 10831 10823 10813 10807 10796 10786 10777 10762 10752 10739 10719 10702 10688 10678
10941 10940 10939 10939 10938 10937 10935 10932 10930 10926 10922 10919 10916 10913 10910 10908 10903 10898 10892 10887 10884 10877 10872 10869 10864 10856 10851 10845 10832 10827 10815 10805 10797 10787 10772 10758 10748 10734 10719 10705 10686 10674 10663
10931 10929 10929 10927 10926 10925 10922 10918 10916 10914 10910 10906 10905 10904 10899 10895 10893 10888 10884 10880 10876 10874 10866 10862 10856 10849 10844 10838 10830 10816 10807 10795 10785 10772 10758 10746 10734 10718 10700 10686 10671 10659 10648
10919 10918 10915 10914 10913 10910 10909 10906 10904 10905 10897 10895 10894 10891 10888 10884 10881 10879 10874 10871 10866 10863 10858 10854 10847 10841 10836 10828 10820 10809 10799 10787 10777 10764 10750 10739 10726 10705 10685 10671 10656 10640 10631
10902 10900 10901 10900 10898 10894 10893 10893 10890 10890 10886 10882 10881 10879 10878 10874 10872 10869 10866 10863 10859 10854 10849 10844 10838 10832 10826 10819 10811 10802 10792 10781 10768 10755 10744 10730 10716 10702 10678 10659 10646 10633 10619
10889 10888 10886 10884 10883 10880 10878 10876 10873 10873 10875 10869 10867 10867 10865 10865 10863 10861 10857 10853 10848 10845 10841 10835 10830 10824 10820 10811 10805 10793 10784 10773 10761 10749 10731 10718 10708 10692 10676 10652 10636 10621 10607